Location: Mount Cross
(36.6390°N, 79.4878°W)
Time: 07:34:31
(UTC+00:00)

Tiros 1 - Pass Details

Date: 04 April 2023
Orbit: 627 x 661 km, 48.4° (Epoch: 02 June)

Event Time Altitude Azimuth Distance (km) Brightness Sun altitude
Exits shadow 09:15:02 14° 317° (NW) 1,808 9.3 -21.0°
Maximum altitude 09:17:30 20° 355° (N) 1,512 9.2 -20.6°
Drops below altitude 10° 09:21:04 10° 43° (NE) 2,077 10.7 -19.9°
Sets 09:23:58 0° 60° (ENE) 2,990 12.2 -19.4°
